Regional Weather Roundup
Issued by NWS

Home | Current Version | Previous Version | Text Only | Print | Product List | Glossary On
Versions: 1 2 3 4 5 6 7 8 9 10 11 12 13 14 15 16 17 18 19 20 21 22 23 24 25 26 27 28 29 30 31 32 33 34 35 36 37 38 39 40 41 42 43 44 45 46 47 48 49 50
000
ASPQ40 PGUM 222112
RWRPQ
WEATHER ROUNDUP FOR THE MARIANAS AND MICRONESIA
NATIONAL WEATHER SERVICE TIYAN GU
700 AM CHST TUE DEC 23 2014

GUZ001>004-222200-
MARIANA ISLANDS-

CITY           SKY/WX    TMP DP  RH WIND       PRES   REMARKS
GUAM AIRPORT   CLEAR     81  75  83 NE10      29.91R
ANDERSEN AFB   MOCLDY    81  75  83 NE20      29.92R
ROTA AIRPORT   PTCLDY    79  75  89 E13       29.94R
TINIAN AP      PTCLDY    81  75  83 E15       29.92R
SAIPAN AP      CLEAR     81  75  83 NE17G25   29.93R

$$

PMZ161-222200-
REPUBLIC OF PALAU-

CITY           SKY/WX    TMP DP  RH WIND       PRES   REMARKS
KOROR AP       CLOUDY    79  77  94 NE10      29.78R
KOROR WSO      CLOUDY    81  77  89 NE9       29.77R

$$

PMZ171>174-222200-
FEDERATED STATES OF MICRONESIA-

CITY           SKY/WX    TMP DP  RH WIND       PRES   REMARKS
YAP AIRPORT    NOT AVBL
CHUUK AP       CLOUDY    84  77  79 NE12      29.78R HX  94
POHNPEI AP     NOT AVBL
POHNPEI WSO    TSTM      77  75  94 E12       29.79R
KOSRAE AP      NOT AVBL

$$

PMZ181-222200-
REPUBLIC OF THE MARSHALL ISLANDS-

CITY           SKY/WX    TMP DP  RH WIND       PRES   REMARKS
KWAJALEIN AP   PTSUNNY   81  73  78 E28       29.82R
MAJURO AP      NOT AVBL
MAJURO WSO     PTSUNNY   84  73  70 E9        29.79R HX  91

$$



USA.gov is the U.S. government's official web portal to all federal, state and local government web resources and services.